Regional Weather Roundup
Issued by NWS Jackson, KY

Home | Current Version | Previous Version | Graphics & Text | Print | Product List | Glossary On
Versions: 1 2 3 4 5 6 7 8 9 10 11 12 13 14 15 16 17 18 19 20 21 22 23 24 25 26 27 28 29 30 31 32 33 34 35 36 37 38 39 40 41 42 43 44 45 46 47 48 49 50
000
ASUS43 KJKL 250519
RWRJKL

EAST KENTUCKY HOURLY WEATHER ROUNDUP
NATIONAL WEATHER SERVICE JACKSON KY
100 AM EDT FRI JUL 25 2014

NOTE: "FAIR" INDICATES FEW OR NO CLOUDS BELOW 12,000 FEET WITH
NO SIGNIFICANT WEATHER AND/OR OBSTRUCTIONS TO VISIBILITY.

* THESE REPORTS ARE NOT UNDER NWS QUALITY CONTROL AND MAY NOT
  REPORT WEATHER SUCH AS PRECIPITATION AND FOG.

KYZ079-080-083-085-087-088-110-112-115-119-120-250600
...EASTERN KENTUCKY...

CITY           SKY/WX    TMP DP  RH WIND       PRES   REMARKS
JACKSON        FOG       61  60  97 CALM      30.08S VSB 1/4
LONDON         FOG       60  58  92 CALM      30.08S VSB 1/2
SOMERSET*      CLEAR     61  61 100 CALM      30.07F FOG
MONTICELLO*    FOG       57  57 100 CALM      30.08S VSB 1/4
WILLIAMSBURG*    N/A     59  59 100 CALM      30.08S
MIDDLESBORO*   MOCLDY    61  60  97 CALM      30.09S
HARLAN APT*    CLOUDY    59  59 100 MISG      30.10S VSB<1/4
BLACK MTN*       N/A     52  52 100 VRB3        N/A
PIKEVILLE APT* FOG       61  61 100 CALM      30.09S VSB 0
BIG SANDY*     FOG       60  60 100 SW3       30.07F VSB<1/4
MOREHEAD APT*  MOCLDY    64  55  72 CALM      30.08F
ASHLAND*       CLEAR     61  55  82 CALM      30.05R
$$

KYZ035-036-041-042-044-050-067-078-099-250600
...CENTRAL KENTUCKY...

CITY           SKY/WX    TMP DP  RH WIND       PRES   REMARKS
MT STERLING*   PTCLDY    63  59  88 CALM      30.08S
FLEMING/MASON* PTCLDY    63  55  77 NE6       30.08S
DANVILLE*      CLEAR     61  59  94 CALM      30.08R
RICHMOND*      MOCLDY    63  59  88 CALM      30.07R
LEXINGTON      CLEAR     62  55  77 CALM      30.06F
FRANKFORT      CLEAR     60  56  86 CALM      30.05S
$$

KYZ091>093-OHZ055-061-077-WVZ005-015-034-035-042-250600
...SOUTHERN OHIO/WEST VIRGINIA...

CITY           SKY/WX    TMP DP  RH WIND       PRES   REMARKS
COVINGTON      CLEAR     67  51  56 NE6       30.07S
COLUMBUS       CLEAR     63  49  60 CALM      30.07S
DAYTON         CLEAR     60  50  69 E6        30.09F
WILMINGTON     PTCLDY    56  50  80 NE7       30.08S
HUNTINGTON       N/A     62  62 100 CALM      30.05R FOG
CHARLESTON     FOG       61  61 100 S3        30.05F VSB 1
PINEVILLE*     CLOUDY    64  64 100 MISG      30.14R FOG
BECKLEY        CLOUDY    60  58  92 NE3       30.12S
BLUEFIELD      CLOUDY    63  58  83 N3        30.13R
$$

VAZ002-007-008-TNZ017-027-036-066-071-250600
...SOUTHWEST VIRGINIA/EAST TENNESSEE...

CITY           SKY/WX    TMP DP  RH WIND       PRES   REMARKS
WISE*          MOCLDY    59  59 100 CALM      30.13R FOG
JONESVILLE*      N/A     59  59 100 CALM      30.10S FOG
ABINGDON*      CLOUDY    65  62  87 CALM      30.09S
BRISTOL        CLOUDY    66  60  81 CALM      30.07R
KNOXVILLE      CLEAR     66  64  93 N5        30.04R
OAK RIDGE      CLEAR     65  62  90 CALM      30.07R
CROSSVILLE     CLEAR     63  60  90 NE7       30.09S
NASHVILLE      CLEAR     70  59  68 NE7       30.04S
$$

...KEY TO REMARKS...
VSB - VISIBILITY IN MILES
WCI - WIND CHILL INDEX
HX  - HEAT INDEX

$$


USA.gov is the U.S. government's official web portal to all federal, state and local government web resources and services.